www.pogodaiklimat.ru

Погода и климат >> Архив погоды >> Россия >> Якутия >> Себян-Кюель


ПОГОДА в Себян-Кюеле

  • Прогноз погоды в Себян-Кюеле
  • Монитор погоды в Себян-Кюеле

АРХИВ ПОГОДЫ в Себян-Кюеле

Время (UTC), дата Ветер
(напр.,м/с)
 
Видим.   Явления Облачность Т
(С)
Тd
(С)
f
(%)
Тe
(С)
Тes
(С)
Комфортность P
(гПа)
Po
(гПа)
Тmin
(С)
Tmax
(С)
R
(мм)
R24
(мм)
S
(см)
06 17.02 штиль 0 н/о н/о -24.1 -28.1 69 -24 -24 1008.6 907.4
09 17.02 З 1 н/о н/о -30.5 -33.5 75 -35 -35 опасность
обморожения
1013.2 909.0
12 17.02 З 2 н/о н/о -34.8 -38.7 67 -43 -43 опасность
обморожения
1016.3 910.0 -21.3
15 17.02 З 2 н/о н/о -37.4 -41.4 66 -46 -46 опасность
обморожения
1017.9 910.4
18 17.02 З 3 н/о н/о -38.2 -42.4 64 -49 -49 опасность
обморожения
1018.2 910.3
21 17.02 З 3 н/о н/о -38.1 -42.4 64 -49 -49 опасность
обморожения
1018.7 910.8
00 18.02 З 2 н/о н/о -38.2 -42.4 64 -47 -47 опасность
обморожения
1019.4 911.4 -38.7
03 18.02 З 1 50 км ясно -30.2 -34.7 65 -34 -33 опасность
обморожения
1016.0 911.7
06 18.02 штиль 0 50 км ясно -33.0 -38.2 59 -33 -32 опасность
обморожения
1017.6 912.1
09 18.02 З 2 50 км ясно -37.5 -41.2 68 -46 -46 опасность
обморожения
1021.2 913.4
12 18.02 З 2 н/о н/о -34.7 -38.6 67 -43 -43 опасность
обморожения
1021.2 914.5 -25.4
15 18.02 З 2 н/о н/о -36.2 -40.1 67 -45 -45 опасность
обморожения
1022.4 914.9
18 18.02 З 2 н/о н/о -37.6 -41.7 65 -46 -46 опасность
обморожения
1023.0 914.9
21 18.02 З 3 н/о н/о -36.6 -40.6 66 -48 -48 опасность
обморожения
1022.6 914.9
00 19.02 штиль 0 50 км 8/0
[Ci fib]
-37.6 -41.9 64 -38 -37 опасность
обморожения
1023.1 915.1 -38.7 26
03 19.02 З 1 50 км 10/0
[Ci fib]
-33.8 -37.5 69 -38 -37 опасность
обморожения
1020.5 914.4
06 19.02 Ю 1 50 км 10/0
[Ci fib]
-28.0 -33.5 59 -32 -32 опасность
обморожения
1017.3 913.9
09 19.02 штиль 0 50 км 10/0
[Ci fib]
-32.0 -35.7 70 -32 -32 опасность
обморожения
1003.4 914.3
00 20.02 штиль 0 50 км ясно -37.6 -41.2 69 -38 -37 опасность
обморожения
1026.8 918.4 0.0 26
06 20.02 ЮВ 1 50 км ясно -26.8 -31.4 65 -31 -30 опасность
обморожения
1022.5 918.9
09 20.02 З 1 н/о н/о -36.9 -41.1 65 -42 -42 опасность
обморожения
1028.6 920.1
12 20.02 З 2 н/о н/о -34.9 -39.0 66 -43 -43 опасность
обморожения
1028.3 920.7
15 20.02 З 2 н/о н/о -37.8 -41.9 65 -47 -47 опасность
обморожения
1029.9 920.9
21 20.02 З 1 н/о н/о -42.0 -46.7 60 -47 -47 опасность
обморожения
1031.7 920.7
00 21.02 З 2 н/о н/о -42.0 -46.7 60 -51 -51 опасность
обморожения
1031.7 920.7 -43.4
03 21.02 штиль 0 н/о н/о -29.6 -34.3 64 -30 -30 1024.5 919.6
06 21.02 ЮВ 1 н/о н/о -29.0 -34.0 62 -33 -33 опасность
обморожения
1023.5 918.9
09 21.02 З 3 н/о н/о -37.6 -41.7 65 -49 -49 опасность
обморожения
1028.2 919.5
12 21.02 З 3 н/о н/о -35.0 -39.1 66 -46 -46 опасность
обморожения
1027.1 919.6 -26.1
15 21.02 З 2 н/о н/о -36.4 -40.5 66 -45 -45 опасность
обморожения
1027.4 919.3
18 21.02 З 3 н/о н/о -37.4 -41.5 65 -49 -49 опасность
обморожения
1027.5 919.0
21 21.02 З 2 н/о н/о -36.3 -40.4 66 -45 -45 опасность
обморожения
1026.7 918.7
00 22.02 З 2 н/о н/о -29.3 -32.7 72 -37 -37 опасность
обморожения
1022.8 918.2 -37.6
03 22.02 З 1 н/о н/о -22.4 -26.5 69 -26 -26 1018.9 917.3
06 22.02 ЮЗ 3 н/о н/о -18.3 -23.1 66 -26 -26 1015.8 916.1
09 22.02 З 3 н/о н/о -17.5 -21.7 70 -25 -25 1015.3 915.9
12 22.02 З 3 н/о н/о -19.7 -24.0 69 -27 -27 1015.8 915.5 -16.9
15 22.02 штиль 0 н/о н/о -30.4 -33.5 74 -30 -30 1020.7 915.8
18 22.02 ЮЗ 1 н/о н/о -38.2 -42.4 64 -43 -43 опасность
обморожения
1025.2 916.6
21 22.02 З 1 н/о н/о -37.2 -41.3 65 -42 -42 опасность
обморожения
1025.2 917.0
00 23.02 З 1 н/о н/о -41.1 -45.7 61 -46 -46 опасность
обморожения
1027.8 917.6 -41.1
03 23.02 штиль 0 н/о н/о -27.0 -31.0 69 -27 -27 1020.3 916.8
06 23.02 штиль 0 н/о н/о -30.4 -34.8 65 -30 -30 1020.9 916.0
09 23.02 З 2 н/о н/о -32.9 -36.8 68 -41 -41 опасность
обморожения
1022.6 916.5
12 23.02 З 2 н/о н/о -36.8 -40.9 66 -45 -45 опасность
обморожения
1024.3 916.4 -24.3
15 23.02 З 2 н/о н/о -39.1 -43.4 64 -48 -48 опасность
обморожения
1024.6 915.6
18 23.02 З 3 н/о н/о -38.9 -43.3 63 -50 -50 опасность
обморожения
1023.7 914.9
21 23.02 З 2 н/о н/о -37.7 -41.8 65 -46 -46 опасность
обморожения
1022.2 914.1
00 24.02 З 1 н/о н/о -34.9 -38.9 67 -40 -40 опасность
обморожения
1019.9 913.2 -39.9
03 24.02 ЮВ 1 н/о н/о -22.7 -28.2 61 -26 -26 1012.8 911.7

 

Местоположение метеостанции Себян-Кюель (Якутия, Россия): широта 65.30 долгота 130.00 высота над уровнем моря 777 м.

В архиве по умолчанию представлена погода в Себян-Кюеле за последнюю неделю. Архивные данные за месяц целиком и за предыдущие месяцы, начиная с января 2011 года, Вы можете получить, выбрав интересующий диапазон дат из раскрывающегося списка и нажав кнопку "Ввод!".


*Определитесь, кто Вы:
робот инопланетянин человек

Внимание! Время в таблицах - всемирное. Для получения местного времени необходимо прибавить поправку, которая равна 9 ч.

Смотрите также архив погоды в соседних городах и на ближайших метеорологических станциях:

Погода в Сеген-Кюеле (Якутия, Россия) (145 км)
Погода в Екюччю (Якутия, Россия) (179 км)
Погода в Сангаре (Якутия, Россия) (195 км)
Погода в Батамае (Якутия, Россия) (200 км)
Погода в Сого-Хае (Якутия, Россия) (205 км)
Погода в Верхоянском Перевозе (Якутия, Россия) (240 км)
Погода в Иэме (Якутия, Россия) (269 км)
Погода в Бестяхской Звероферме (Якутия, Россия) (274 км)
Погода в Батагай-Алыте (Якутия, Россия) (276 км)
Погода в Намцах (Якутия, Россия) (288 км)

Пояснения к столбцам:

Ветер - указаны скорость ветра в м/с - средняя за 10 мин, порывы в срок и между сроками (в фигурных скобках) и направление, откуда дует ветер: С - северный, СВ - северо-восточный, В - восточный, ЮВ - юго-восточный, Ю - южный, ЮЗ - юго-западный, З - западный, СЗ - северо-западный.
Видимость - горизонтальная дальность видимости в метрах или километрах. При видимости от 1 до 10 км при отсутствии осадков обычно наблюдается дымка, при ухудшении видимости до 1 км и менее - туман. В сухую погоду видимость может ухудшаться дымом, пылью или мглою.
Явления - указаны атмосферные явления, наблюдавшиеся в срок или в последний час перед сроком; фигурными скобками обозначены явления, наблюдавшиеся между сроками (за 1-3 часа до срока); квадратными скобками обозначены град или гололедные отложения с указанием их диаметра в мм.
Облачность - указаны через наклонную черту общая и нижняя облачность в баллах и высота нижней границы облаков в метрах; квадратными скобками обозначены формы облаков: Ci - перистые, Cs - перисто-слоистые, Cc - перисто-кучевые, Ac - высококучевые, As - высокослоистые, Sc - слоисто-кучевые, Ns - слоисто-дождевые, Cu - кучевые, Cb - кучево-дождевые. Подробнее классификацию облаков см. в Атласе облаков (PDF).
T - Температура воздуха - температура, измеренная на высоте 2 м над землей.
Td - Температура точки росы - температура, при понижении до которой содержащийся в воздухе водяной пар достигнет насыщения.
f - Относительная влажность воздуха - влажноcть воздуха, измеренная на высоте 2 м над землей.
Te - Эффективная температура - температура, которую ощущает одетый по сезону человек в тени. Характеристика душности погоды. При расчете учитывается влияние влажности воздуха и скорости ветра на теплоощущения человека.
Tes - Эффективная температура на солнце - температура, которую ощущает человек, с поправкой на солнечный нагрев. Характеристика знойности погоды. Зависит от высоты солнца над горизонтом, облачности и скорости ветра. Ночью, в пасмурную погоду, а также при ветре 12 м/с и более поправка равна нулю.
P - Атмосферное давление - приведенное к уровню моря атмосферное давление.
Po - Атмосферное давление - измеренное на уровне метеостанции атмосферное давление.
Tmin - Минимальная температура - минимум температуры воздуха на высоте 2 м над землей.
Tmax - Максимальная температура - максимум температуры воздуха на высоте 2 м над землей.
R - Количество осадков - Количество выпавших осадков за период времени, мм. При наведении курсора мыши на число - период времени, за который выпало указанное количество осадков.
R24 - Количество осадков - Количество выпавших осадков за 24 часа, мм.
S - Снежный покров - Высота снежного покрова, см. При наведении курсора мыши на число - состояние снежного покрова и степень покрытия местности в баллах.